Flag for U.S.A. Weather past 2 weeks in Myrtle Beach, South Carolina, U.S.A.

Now
91 °F

Passing clouds.


Feels Like: 108 °F
Forecast: 77 / 90 °F
Wind: 9 mph from Southeast

Location: Myrtle Beach Air Force Base

Current Time: Aug 23, 2014 at 3:08:23 PM

Latest Report: Aug 23, 2014 at 1:45 PM


Visibility: 10 mi

Pressure: 29.89 "Hg

Humidity: 67%

Dew point: 79 °F

Location of Myrtle BeachLocation

Historic Weather in Myrtle Beach — Graph

°F

Myrtle Beach temperature yesterday

Maximum temperature yesterday: 93 °F (at 11:45 AM)
Minimum temperature yesterday: 79 °F (at 3:15 AM)
Average temperature yesterday: 84 °F

Past Weeks' High & Low Weather Summary

 TemperatureHumidityPressure
High93 °F (Aug 17, 2:45 PM)94% (Aug 10, 11:35 PM)30.08 "Hg (Aug 10, 11:35 PM)
Low68 °F (Aug 15, 5:55 AM)41% (Aug 17, 1:45 PM)29.80 "Hg (Aug 18, 5:45 PM)
Average80 °F77%29.96 "Hg
* Reported Aug 8 1:47 PM — Aug 23 1:45 PM, Myrtle Beach, Weather by CustomWeather, © 2014

Note: Actual official high and low records may vary slightly from our data, if they occured in-between our weather recording intervals... More about our weather records

Advertising

Myrtle Beach weather history for previous 24 hours

 ConditionsComfort  
Time TempWeatherWind HumidityBarometerVisibility
1:45 PM
Aug 23
91 °FPassing clouds.9 mph67%29.89 "Hg10 mi
12:45 PM91 °FPassing clouds.9 mph67%29.90 "Hg7 mi
11:45 AM91 °FPassing clouds.8 mph67%29.91 "Hg7 mi
10:45 AM90 °FPassing clouds.5 mph63%29.93 "Hg7 mi
9:45 AM86 °FScattered clouds.5 mph70%29.92 "Hg7 mi
8:45 AM82 °FPassing clouds.5 mph84%29.92 "Hg7 mi
7:48 AM81 °FFog.5 mph84%29.91 "Hg4 mi
6:47 AM81 °FFog.5 mph84%29.91 "Hg4 mi
5:55 AM81 °FClear.5 mph84%29.90 "Hg10 mi
5:35 AM81 °FClear.5 mph84%29.89 "Hg10 mi
5:15 AM81 °FClear.3 mph84%29.89 "Hg10 mi
4:55 AM81 °FClear.5 mph84%29.89 "Hg10 mi
4:35 AM81 °FClear.3 mph84%29.89 "Hg10 mi
4:15 AM81 °FClear.3 mph84%29.89 "Hg10 mi
3:55 AM82 °FClear.No wind79%29.90 "Hg10 mi
3:35 AM81 °FClear.3 mph89%29.90 "Hg10 mi
3:15 AM82 °FClear.No wind84%29.91 "Hg10 mi
2:55 AM82 °FClear.No wind84%29.91 "Hg10 mi
2:35 AM82 °FClear.No wind84%29.92 "Hg10 mi
1:55 AM82 °FClear.5 mph84%29.93 "Hg10 mi
1:35 AM82 °FClear.5 mph84%29.94 "Hg10 mi
1:15 AM84 °FClear.6 mph84%29.94 "Hg10 mi
12:55 AM84 °FClear.6 mph84%29.94 "Hg10 mi
12:35 AM84 °FClear.6 mph84%29.94 "Hg10 mi
12:15 AM84 °FClear.6 mph84%29.95 "Hg10 mi
11:55 PM
Aug 22
84 °FClear.7 mph84%29.95 "Hg10 mi
11:35 PM84 °FClear.6 mph84%29.96 "Hg10 mi
11:15 PM84 °FClear.6 mph84%29.96 "Hg10 mi
10:55 PM84 °FClear.7 mph84%29.96 "Hg10 mi
10:35 PM86 °FClear.6 mph79%29.95 "Hg10 mi
10:15 PM86 °FClear.9 mph79%29.96 "Hg10 mi
9:55 PM86 °FClear.7 mph79%29.95 "Hg10 mi
8:55 PM88 °FClear.7 mph75%29.95 "Hg10 mi
6:45 PM90 °FPassing clouds.12 mph71%29.94 "Hg10 mi
5:45 PM91 °FPassing clouds.12 mph56%29.94 "Hg10 mi
4:50 PM91 °FPassing clouds.12 mph56%29.94 "Hg10 mi
3:50 PM91 °FScattered clouds.13 mph63%29.96 "Hg10 mi
Weather by CustomWeather, © 2014

See weather overviewHow to use our weather pages